Weather History for EBFS - January, 2014

Change the Weather History Date:

Sunday, January 5, 2014

  Actual Average Record
Temperature  
Mean Temperature 40 °F -  
Max Temperature 44 °F 38 °F 57 °F (1999)
Min Temperature 35 °F 32 °F 21 °F (1997)
Degree Days  
Heating Degree Days 26    
Moisture  
Dew Point 37 °F    
Average Humidity 90    
Maximum Humidity 100    
Minimum Humidity 76    
Precipitation  
Precipitation 0.00 in - - ()
Sea Level Pressure  
Sea Level Pressure 29.72 in    
Wind  
Wind Speed 11 mph ()    
Max Wind Speed 21 mph    
Max Gust Speed 33 mph    
Visibility 8.5 miles    
Events Rain    
Averages and records for this station are not official NWS values.
T = Trace of Precipitation, MM = Missing Value Source: Averaged Metar Reports

Daily Weather History Graph

Daily Weather History Graph

Search for Another Location

Airport or City:

Trip Planner

Search our weather history database for the weather conditions in past years. The results will help you decide how hot, cold, wet, or windy it might be!

Date:

Astronomy

Jan. 05, 2014 Rise Set
Actual Time 8:40 AM CET 4:53 PM CET
Civil Twilight 8:02 AM CET 5:31 PM CET
Nautical Twilight 7:20 AM CET 6:13 PM CET
Astronomical Twilight 6:41 AM CET 6:52 PM CET
Moon 10:42 AM CET (1/5) 10:37 PM CET (1/5)
Length of Visible Light 9h 29m
Length of Day
8h 13m
Waxing Crescent, 22% of the Moon is Illuminated
Jan 5
Waxing Crescent
Jan 8
First Quarter
Jan 16
Full
Jan 24
Last Quarter
Jan 30
New

Hourly Weather History & Observations

Time (CET) Temp. Windchill Dew Point Humidity Pressure Visibility Wind Dir Wind Speed Gust Speed Precip Events Conditions
12:00 AM 45 °F - 42 °F 87% 29.47 in 10 mi SW 11.2 mph - - Rain Light Rain
12:25 AM 44.6 °F 38.4 °F 42.8 °F 93% 29.44 in 5.0 mi WSW 12.7 mph - N/A Rain Light Rain
12:55 AM 42.8 °F 36.2 °F 41.0 °F 93% 29.47 in 5.6 mi West 12.7 mph - N/A Rain Light Rain
1:00 AM 43 °F - 42 °F 93% 29.50 in 6 mi West 13.4 mph - - Rain Light Rain
1:25 AM 42.8 °F 34.8 °F 41.0 °F 93% 29.47 in 6.2 mi West 17.3 mph - N/A   Mostly Cloudy
1:55 AM 41.0 °F 32.2 °F 39.2 °F 93% 29.50 in 6.2 mi West 18.4 mph - N/A   Mostly Cloudy
2:00 AM 42 °F - 39 °F 86% 29.53 in 12 mi West 17.9 mph - - Rain Light Rain
2:25 AM 41.0 °F 32.8 °F 37.4 °F 87% 29.50 in 6.2 mi West 16.1 mph - N/A   Mostly Cloudy
2:55 AM 41.0 °F 35.2 °F 37.4 °F 87% 29.53 in 6.2 mi WSW 9.2 mph - N/A   Mostly Cloudy
3:00 AM 40 °F - 38 °F 90% 29.57 in 12 mi WSW 8.9 mph - -   Mostly Cloudy
3:25 AM 39.2 °F 33.6 °F 37.4 °F 93% 29.56 in 6.2 mi WSW 8.1 mph - N/A   Mostly Cloudy
3:55 AM 39.2 °F 34.2 °F 37.4 °F 93% 29.56 in 6.2 mi WSW 6.9 mph - N/A   Mostly Cloudy
4:00 AM 39 °F - 38 °F 92% 29.62 in 12 mi WSW 6.7 mph - -   Partly Cloudy
4:25 AM 39.2 °F 33.6 °F 37.4 °F 93% 29.59 in 6.2 mi SW 8.1 mph - N/A   Mostly Cloudy
4:54 AM 39.2 °F 32.5 °F 37.4 °F 93% 29.62 in 6.2 mi WSW 10.4 mph - N/A   Mostly Cloudy
4:55 AM 39.2 °F 32.5 °F 37.4 °F 93% 29.62 in 6.2 mi WSW 10.4 mph - N/A   Mostly Cloudy
5:00 AM 39 °F - 37 °F 89% 29.66 in 12 mi WSW 8.9 mph - -   Partly Cloudy
5:25 AM 37.4 °F 32.1 °F 37.4 °F 100% 29.62 in 6.2 mi SW 6.9 mph - N/A   Mostly Cloudy
5:53 AM 39.2 °F 33.0 °F 37.4 °F 93% 29.62 in 6.2 mi SW 9.2 mph - N/A   Mostly Cloudy
5:55 AM 39.2 °F 32.5 °F 37.4 °F 93% 29.65 in 6.2 mi WSW 10.4 mph - N/A   Mostly Cloudy
6:00 AM 38 °F - 37 °F 94% 29.68 in 12 mi WSW 11.2 mph - -   Partly Cloudy
6:25 AM 37.4 °F 31.4 °F 35.6 °F 93% 29.65 in 6.2 mi SW 8.1 mph - N/A   Mostly Cloudy
6:55 AM 37.4 °F 32.1 °F 35.6 °F 93% 29.65 in 6.2 mi SW 6.9 mph - N/A   Mostly Cloudy
7:00 AM 38 °F - 36 °F 91% 29.71 in 12 mi SW 6.7 mph - -   Partly Cloudy
7:25 AM 37.4 °F 32.1 °F 35.6 °F 93% 29.68 in 6.2 mi SSW 6.9 mph - N/A   Mostly Cloudy
7:55 AM 37.4 °F 31.4 °F 35.6 °F 93% 29.68 in 6.2 mi SSW 8.1 mph - N/A   Scattered Clouds
8:00 AM 37 °F - 36 °F 93% 29.73 in 16 mi SSW 8.9 mph - -   Partly Cloudy
8:25 AM 37.4 °F 28.9 °F 35.6 °F 93% 29.71 in 6.2 mi SSW 13.8 mph - N/A   Scattered Clouds
8:55 AM 35.6 °F 28.0 °F 35.6 °F 100% 29.71 in 6.2 mi SSW 10.4 mph - N/A   Scattered Clouds
9:00 AM 36 °F - 35 °F 96% 29.77 in 16 mi SSW 8.9 mph - -   Partly Cloudy
9:20 AM 35.6 °F 29.2 °F 35.6 °F 100% 29.74 in 6.2 mi SSW 8.1 mph - N/A   Partly Cloudy
9:25 AM 35.6 °F 28.6 °F 35.6 °F 100% 29.74 in 6.2 mi SSW 9.2 mph - N/A   Partly Cloudy
9:40 AM 35.6 °F 28.0 °F 35.6 °F 100% 29.74 in 6.2 mi SSW 10.4 mph - N/A   Scattered Clouds
9:55 AM 37.4 °F 29.8 °F 35.6 °F 93% 29.74 in 6.2 mi SSW 11.5 mph - N/A   Scattered Clouds
10:00 AM 36 °F - 35 °F 95% 29.78 in 16 mi SSW 11.2 mph - -   Partly Cloudy
10:25 AM 37.4 °F 31.4 °F 35.6 °F 93% 29.74 in 6.2 mi SSW 8.1 mph - N/A   Mostly Cloudy
10:55 AM 37.4 °F 30.8 °F 35.6 °F 93% 29.74 in 6.2 mi SSW 9.2 mph - N/A   Mostly Cloudy
11:00 AM 37 °F - 35 °F 91% 29.80 in 16 mi SSW 8.9 mph - -   Mostly Cloudy
11:25 AM 37.4 °F 31.4 °F 35.6 °F 93% 29.77 in 6.2 mi SSW 8.1 mph - N/A   Mostly Cloudy
11:55 AM 37.4 °F 32.1 °F 35.6 °F 93% 29.77 in 6.2 mi SSW 6.9 mph - N/A   Mostly Cloudy
12:00 PM 37 °F - 35 °F 92% 29.81 in 16 mi SSW 6.7 mph - -   Mostly Cloudy
12:25 PM 37.4 °F 32.8 °F 35.6 °F 93% 29.77 in 6.2 mi South 5.8 mph - N/A   Mostly Cloudy
12:55 PM 37.4 °F 32.8 °F 37.4 °F 100% 29.77 in 6.2 mi South 5.8 mph - N/A   Mostly Cloudy
1:00 PM 38 °F - 36 °F 92% 29.82 in 16 mi South 6.7 mph - -   Mostly Cloudy
1:25 PM 39.2 °F 35.0 °F 37.4 °F 93% 29.77 in 6.2 mi SSW 5.8 mph - N/A   Mostly Cloudy
1:55 PM 39.2 °F 34.2 °F 37.4 °F 93% 29.77 in 6.2 mi SSW 6.9 mph - N/A   Mostly Cloudy
2:00 PM 39 °F - 36 °F 87% 29.83 in 16 mi SSW 6.7 mph - -   Mostly Cloudy
2:25 PM 39.2 °F 33.6 °F 37.4 °F 93% 29.77 in 6.2 mi South 8.1 mph - N/A   Mostly Cloudy
2:55 PM 39.2 °F 33.0 °F 37.4 °F 93% 29.80 in 6.2 mi South 9.2 mph - N/A   Mostly Cloudy
3:00 PM 39 °F - 37 °F 88% 29.83 in 16 mi South 8.9 mph - -   Mostly Cloudy
3:25 PM 39.2 °F 33.0 °F 37.4 °F 93% 29.80 in 6.2 mi South 9.2 mph - N/A   Mostly Cloudy
3:55 PM 39.2 °F 33.6 °F 35.6 °F 87% 29.80 in 6.2 mi South 8.1 mph - N/A   Mostly Cloudy
4:00 PM 40 °F - 36 °F 79% 29.85 in 16 mi South 8.9 mph - -   Mostly Cloudy
4:09 PM 39.2 °F 33.6 °F 35.6 °F 87% 29.80 in 6.2 mi South 8.1 mph - N/A   Mostly Cloudy
4:25 PM 39.2 °F 32.0 °F 35.6 °F 87% 29.80 in 6.2 mi South 11.5 mph - N/A   Mostly Cloudy
4:55 PM 39.2 °F 33.0 °F 35.6 °F 87% 29.83 in 6.2 mi South 9.2 mph - N/A   Mostly Cloudy
5:00 PM 39 °F - 36 °F 83% 29.86 in 16 mi South 8.9 mph - -   Partly Cloudy
5:25 PM 39.2 °F 33.0 °F 35.6 °F 87% 29.83 in 6.2 mi South 9.2 mph - N/A   Mostly Cloudy
5:55 PM 39.2 °F 31.6 °F 35.6 °F 87% 29.80 in 6.2 mi South 12.7 mph - N/A   Mostly Cloudy
6:00 PM 39 °F - 36 °F 84% 29.84 in 16 mi South 11.2 mph - -   Partly Cloudy
6:07 PM 39.2 °F 31.2 °F 35.6 °F 87% 29.80 in 6.2 mi South 13.8 mph - N/A   Mostly Cloudy
6:25 PM 39.2 °F 30.2 °F 37.4 °F 93% 29.77 in 6.2 mi South 17.3 mph - N/A   Mostly Cloudy
6:42 PM 39.2 °F 30.8 °F 37.4 °F 93% 29.77 in 6.2 mi South 15.0 mph - N/A   Mostly Cloudy
6:55 PM 41.0 °F 32.8 °F 37.4 °F 87% 29.77 in 6.2 mi South 16.1 mph - N/A   Mostly Cloudy
7:00 PM 40 °F - 37 °F 83% 29.81 in 16 mi South 15.7 mph - -   Partly Cloudy
7:25 PM 41.0 °F 32.8 °F 37.4 °F 87% 29.77 in 6.2 mi South 16.1 mph - N/A   Mostly Cloudy
7:55 PM 41.0 °F 32.8 °F 37.4 °F 87% 29.80 in 6.2 mi South 16.1 mph - N/A   Mostly Cloudy
8:00 PM 41 °F - 37 °F 80% 29.83 in 16 mi South 15.7 mph - -   Mostly Cloudy
8:08 PM 41.0 °F 32.8 °F 37.4 °F 87% 29.80 in 6.2 mi South 16.1 mph - N/A   Mostly Cloudy
8:25 PM 41.0 °F 32.8 °F 37.4 °F 87% 29.80 in 6.2 mi South 16.1 mph - N/A   Mostly Cloudy
8:55 PM 41.0 °F 32.5 °F 37.4 °F 87% 29.77 in 6.2 mi South 17.3 mph - N/A   Mostly Cloudy
9:00 PM 41 °F - 37 °F 80% 29.81 in 16 mi South 15.7 mph - -   Mostly Cloudy
9:21 PM 41.0 °F 32.8 °F 37.4 °F 87% 29.77 in 6.2 mi South 16.1 mph - N/A   Mostly Cloudy
9:25 PM 41.0 °F 32.8 °F 37.4 °F 87% 29.77 in 6.2 mi South 16.1 mph - N/A   Mostly Cloudy
9:48 PM 41.0 °F 32.5 °F 37.4 °F 87% 29.77 in 6.2 mi South 17.3 mph - N/A   Mostly Cloudy
9:55 PM 41.0 °F 32.2 °F 37.4 °F 87% 29.74 in 6.2 mi South 18.4 mph - N/A   Mostly Cloudy
10:00 PM 42 °F - 37 °F 76% 29.79 in 16 mi South 17.9 mph - -   Mostly Cloudy
10:17 PM 42.8 °F 34.8 °F 37.4 °F 81% 29.74 in 6.2 mi South 17.3 mph 29.9 mph N/A   Mostly Cloudy
10:25 PM 42.8 °F 34.5 °F 37.4 °F 81% 29.74 in 6.2 mi South 18.4 mph - N/A   Mostly Cloudy
10:55 PM 42.8 °F 34.5 °F 39.2 °F 87% 29.74 in 6.2 mi South 18.4 mph - N/A   Mostly Cloudy
11:00 PM 42 °F - 39 °F 84% 29.77 in 16 mi South 17.9 mph - -   Mostly Cloudy
11:25 PM 44.6 °F 36.4 °F 39.2 °F 81% 29.74 in 6.2 mi South 20.7 mph 33.4 mph N/A   Mostly Cloudy
11:55 PM 44.6 °F 37.2 °F 39.2 °F 81% 29.74 in 6.2 mi South 17.3 mph - N/A   Mostly Cloudy